Regional Weather Roundup
Issued by NWS

Home | Current Version | Previous Version | Graphics & Text | Print | Product List | Glossary On
Versions: 1 2 3 4 5 6 7 8 9 10 11 12 13 14 15 16 17 18 19 20 21 22 23 24 25 26 27 28 29 30 31 32 33 34 35 36 37 38 39 40 41 42 43 44 45 46 47 48 49 50
000
ASUS45 KBOU 300107
RWRCO

WEATHER ROUNDUP FOR COLORADO
NATIONAL WEATHER SERVICE DENVER/BOULDER CO
700 PM MDT MON SEP 29 2014

NOTE: "FAIR" INDICATES FEW OR NO CLOUDS BELOW 12000 FEET WITH NO
SIGNIFICANT WEATHER AND/OR OBSTRUCTIONS TO VISIBILITY.

COZ001>005-013-030-031-300200-
...NORTHWEST COLORADO...

CITY           SKY/WX    TMP DP  RH WIND       PRES   REMARKS
CRAIG          CLOUDY    49  40  71 S10       29.99S
HAYDEN         CLOUDY    45  39  81 SE6       30.00F
MEEKER         LGT RAIN  45  41  86 E5        30.03F
MOUNT WERNER   NOT AVBL
STEAMBOAT SPGS CLOUDY    42  40  91 NE7       30.02S
WALDEN         CLOUDY    37  36  93 S5        30.02S
$$

COZ006>008-011-300200-
...WEST CENTRAL VALLEYS...

CITY           SKY/WX    TMP DP  RH WIND       PRES   REMARKS
GRAND JUNCTION MOCLDY    50  44  80 W3        30.02R
MONTROSE       MOCLDY    48  44  86 SW3       30.07S
EAGLE          CLOUDY    43  41  93 CALM      30.07F
RIFLE          CLOUDY    48  45  89 VRB3      30.03S
DELTA          RAIN      50  45  82 CALM      30.05S
NUCLA          MOCLDY    52  43  71 SE3       30.08S
$$

COZ017>023-064>068-300200-
...SOUTHWEST COLORADO...

CITY           SKY/WX    TMP DP  RH WIND       PRES   REMARKS
DURANGO        PTCLDY    51  35  54 W10       30.07S
CORTEZ         CLEAR     55  37  50 W7        30.05F
PAGOSA SPRINGS PTCLDY    44  42  95 CALM      30.11F
TELLURIDE      NOT AVBL
WOLF CREEK PAS FOG       28  28 100 SW36G48   30.19S VSB 1   WCI  12
$$

COZ009-010-012-014-032>034-037-058>063-300200-
...CENTRAL COLORADO...

CITY           SKY/WX    TMP DP  RH WIND       PRES   REMARKS
ASPEN          CLOUDY    41  36  82 CALM      30.07S
BUENA VISTA    MOCLDY    46  30  54 W20G28    29.97F
COPPER MTN     SNOW      34  30  86 W26G38    30.10F VSB<1/4 WCI  21
BERTHOUD PASS  SNOW      27  23  86 NW24G33   30.10F VSB<1/4 WCI  12
COTTONWOOD PAS MOCLDY    41  28  60 W25G43    30.00F
GUNNISON       CLOUDY    43  34  70 SW5       30.10S
KREMMLING      LGT RAIN  39  34  81 W17       30.04S
LEADVILLE      CLOUDY    34  31  88 NW15G23   30.05F WCI  24
MONARCH PASS   FOG       28  27  93 MISG      30.20F VSB<1/4
SALIDA         MOCLDY    48  33  55 SW14G21   30.04F
SUNLIGHT       SNOW      32  32 100 CALM      30.15F VSB 1/2
WILKERSON PASS NOT AVBL
$$

COZ069>075-300200-
...SAN LUIS VALLEY/SANGRE DE CRISTO MOUNTAINS...

CITY           SKY/WX    TMP DP  RH WIND       PRES   REMARKS
ALAMOSA        PTCLDY    45  40  82 CALM      30.04F
LA VETA PASS   FOG       36  34  93 S10G28    30.05R VSB 1
SAGUACHE       MOCLDY    45  37  76 W5        30.03F
$$

COZ035-036-038>040-300200-
...NORTHERN COLORADO FRONT RANGE...

CITY           SKY/WX    TMP DP  RH WIND       PRES   REMARKS
DENVER INTL AP CLOUDY    54  52  93 N15       29.79F
DMNS CITY PARK   N/A     54  53  96 NE3       29.85R
AURORA         MOCLDY    52  52 100 S8        29.86F
FRONT RANGE AP NOT AVBL
ERIE MUNI ARPT CLOUDY    55  53  94 N12G18    29.79F
BOULDER MUN AP CLOUDY    54  52  94 W3        29.82F
CENTENNIAL     CLOUDY    52  51  97 S6        29.87F
BROOMFIELD     LGT RAIN  54  54 100 NW8       29.83F
FORT COLLINS   CLOUDY    54  46  76 N21       29.87S
LONGMONT       LGT RAIN  57  53  86 N12       29.81F
$$

COZ041-046-047-076>085-087-088-300200-
...PIKES PEAK/PALMER DIVIDE AND SOUTHERN FOOTHILLS...

CITY           SKY/WX    TMP DP  RH WIND       PRES   REMARKS
COLO. SPRINGS  CLOUDY    53  46  77 N6        29.82F
A. F. ACADEMY  CLOUDY    53  38  56 N12       29.85F
ELLICOTT       NOT AVBL
FALCON         CLOUDY    49  41  72 NW12      29.87F
FORT CARSON    CLOUDY    56  41  56 NW10      29.82F
LIMON          CLOUDY    52  48  86 NW15      29.80F
MONUMENT HILL  CLOUDY    43  43 100 W5        29.87F
TRINIDAD       MOCLDY    56  42  59 SW9       29.90F
$$

COZ042>045-048>051-090-091-300200-
...NORTHEAST COLORADO...

CITY           SKY/WX    TMP DP  RH WIND       PRES   REMARKS
GREELEY ARPT   CLOUDY    55  48  76 NW10      29.84R
AKRON          TSTM      55  54  96 NW18      29.76F
BURLINGTON     MOCLDY    74  52  46 S31G45    29.76F
WRAY           CLOUDY    76  51  41 SE25G36   29.72S
STERLING       CLOUDY    61  59  94 SW10      29.75S
HOLYOKE        MOCLDY    75  52  43 SE21G32   29.71F
FORT MORGAN    RAIN      55  53  94 NW13G22   29.83R
$$

COZ086-089-092>099-300200-
...SOUTHEAST COLORADO...

CITY           SKY/WX    TMP DP  RH WIND       PRES   REMARKS
PUEBLO         CLOUDY    60  45  57 CALM      29.80S
LA JUNTA       LGT RAIN  59  51  75 MISG      29.80F
LAMAR          TSTM      54  54 100 SW17G29   29.90R VSB 1
SPRINGFIELD      N/A     66  58  75 S32G40    29.89R
$$



USA.gov is the U.S. government's official web portal to all federal, state and local government web resources and services.